Oxford, CT

10:50 PM EDT on May 22, 2017 (GMT -0400)
Waterbury-Oxford

Weather History for KOXC - June, 2013

Change the Weather History Date:

Friday, June 7, 2013

  Actual Average Record
Temperature  
Mean Temperature 56 °F -  
Max Temperature 60 °F 69 °F 91 °F (2008)
Min Temperature 53 °F 51 °F 39 °F (2007)
Degree Days  
Heating Degree Days 8    
Growing Degree Days 6 (Base 50)    
Moisture  
Dew Point 53 °F    
Average Humidity 87    
Maximum Humidity 94    
Minimum Humidity 82    
Precipitation  
Precipitation 0.75 in - - ()
Sea Level Pressure  
Sea Level Pressure 29.93 in    
Wind  
Wind Speed 8 mph (East)    
Max Wind Speed 17 mph    
Max Gust Speed 26 mph    
Visibility 7 miles    
Events Rain    
Averages and records for this station are not official NWS values.
T = Trace of Precipitation, MM = Missing Value Source: NWS Daily Summary

Daily Weather History Graph

Daily Weather History Graph

Search for Another Location

Airport or City:

Trip Planner

Search our weather history database for the weather conditions in past years. The results will help you decide how hot, cold, wet, or windy it might be!

Date:

Astronomy

Jun. 07, 2013 Rise Set
Actual Time 5:19 AM EDT 8:24 PM EDT
Civil Twilight 4:45 AM EDT 8:57 PM EDT
Nautical Twilight 4:02 AM EDT 9:40 PM EDT
Astronomical Twilight 3:11 AM EDT 10:31 PM EDT
Moon 4:40 AM EDT (6/7) 7:35 PM EDT (6/7)
Length of Visible Light 16h 12m
Length of Day
15h 05m
Waning Crescent, 1% of the Moon is Illuminated
Jun 7
Waning Crescent
Jun 8
New
Jun 16
First Quarter
Jun 23
Full
Jun 30
Last Quarter

Hourly Weather History & Observations

Time (EDT) Temp. Dew Point Humidity Pressure Visibility Wind Dir Wind Speed Gust Speed Precip Events Conditions
12:15 AM 57.2 °F 53.6 °F 88% 30.07 in 10.0 mi ESE 5.8 mph - 0.01 in   Overcast
12:35 AM 57.2 °F 53.6 °F 88% 30.07 in 10.0 mi SE 5.8 mph - 0.02 in   Overcast
12:55 AM 57.2 °F 53.6 °F 88% 30.06 in 10.0 mi SE 5.8 mph - 0.02 in   Overcast
1:15 AM 57.2 °F 53.6 °F 88% 30.05 in 10.0 mi ESE 4.6 mph - 0.01 in   Overcast
1:35 AM 57.2 °F 53.6 °F 88% 30.05 in 10.0 mi ESE 5.8 mph - 0.01 in   Overcast
1:55 AM 57.2 °F 53.6 °F 88% 30.04 in 10.0 mi East 5.8 mph - 0.03 in   Overcast
2:15 AM 57.2 °F 53.6 °F 88% 30.04 in 10.0 mi ESE 4.6 mph - 0.02 in   Overcast
2:35 AM 57.2 °F 53.6 °F 88% 30.03 in 10.0 mi ESE 6.9 mph - 0.02 in   Overcast
2:55 AM 57.2 °F 53.6 °F 88% 30.03 in 10.0 mi ESE 6.9 mph - 0.02 in   Overcast
3:15 AM 57.2 °F 53.6 °F 88% 30.02 in 10.0 mi ESE 6.9 mph - 0.01 in   Overcast
3:35 AM 57.2 °F 53.6 °F 88% 30.01 in 10.0 mi ESE 8.1 mph - 0.04 in   Overcast
3:55 AM 55.4 °F 53.6 °F 94% 30.01 in 10.0 mi East 8.1 mph - 0.05 in   Overcast
4:15 AM 55.4 °F 53.6 °F 94% 30.01 in 10.0 mi ESE 9.2 mph - 0.02 in   Overcast
4:35 AM 55.4 °F 51.8 °F 88% 30.00 in 9.0 mi ESE 9.2 mph - 0.04 in   Overcast
4:55 AM 55.4 °F 51.8 °F 88% 30.01 in 10.0 mi ESE 6.9 mph - 0.06 in   Overcast
5:15 AM 55.4 °F 51.8 °F 88% 30.01 in 10.0 mi East 5.8 mph - N/A   Overcast
5:35 AM 55.4 °F 51.8 °F 88% 30.00 in 10.0 mi ESE 6.9 mph - 0.01 in   Overcast
5:50 AM 55.4 °F 51.8 °F 88% 30.00 in 7.0 mi ESE 6.9 mph - N/A   Overcast
5:55 AM 55.4 °F 51.8 °F 88% 30.00 in 10.0 mi ESE 5.8 mph - 0.01 in   Overcast
6:45 AM 55.4 °F 50.0 °F 82% 30.01 in 5.0 mi ESE 5.8 mph - N/A   Overcast
7:45 AM 53.6 °F 48.2 °F 82% 30.00 in 4.0 mi East 6.9 mph - N/A Rain Light Rain
8:45 AM 55.4 °F 51.8 °F 88% 29.99 in 3.0 mi East 9.2 mph - N/A Rain Light Rain
9:45 AM 57.2 °F 53.6 °F 88% 29.98 in 2.0 mi East 6.9 mph - N/A Rain Light Rain
10:45 AM 57.2 °F 53.6 °F 88% 29.98 in 1.0 mi East 9.2 mph - N/A Rain Light Rain
11:45 AM 59.0 °F 55.4 °F 88% 29.96 in 2.0 mi ESE 10.4 mph 17.3 mph N/A Rain Light Rain
12:45 PM 60.8 °F 55.4 °F 82% 29.95 in 2.0 mi ESE 8.1 mph - N/A Rain Light Rain
1:55 PM 59.0 °F 55.4 °F 88% 29.93 in 1.0 mi ESE 8.1 mph 16.1 mph N/A Rain Light Rain
2:45 PM 60.8 °F 55.4 °F 82% 29.91 in 2.0 mi East 11.5 mph - N/A Rain Light Rain
3:45 PM 60.8 °F 55.4 °F 82% 29.90 in 2.0 mi East 9.2 mph 17.3 mph N/A Rain Light Rain
4:45 PM 60.8 °F 55.4 °F 82% 29.87 in 3.0 mi East 9.2 mph 20.7 mph N/A Rain Light Rain
5:45 PM 60.8 °F 55.4 °F 82% 29.84 in 2.0 mi ENE 11.5 mph 20.7 mph N/A Rain Rain
6:45 PM 59.0 °F 55.4 °F 88% 29.79 in 2.0 mi East 13.8 mph 23.0 mph N/A Rain Rain
7:45 PM 57.2 °F 53.6 °F 88% 29.81 in 3.0 mi ENE 9.2 mph 23.0 mph N/A Rain Rain
9:15 PM 57.2 °F 53.6 °F 88% 29.77 in 10.0 mi NE 16.1 mph 23.0 mph 0.09 in   Overcast
9:35 PM 57.2 °F 53.6 °F 88% 29.79 in 10.0 mi NE 13.8 mph 21.9 mph 0.10 in   Overcast
9:55 PM 57.2 °F 51.8 °F 82% 29.76 in 8.0 mi NE 16.1 mph 26.5 mph 0.01 in   Overcast
10:15 PM 55.4 °F 51.8 °F 88% 29.77 in 6.0 mi NE 12.7 mph 21.9 mph 0.23 in   Overcast
10:35 PM - - N/A% 29.75 in 5.0 mi NE 15.0 mph 21.9 mph 0.25 in   Overcast
10:55 PM 55.4 °F 51.8 °F 88% 29.75 in 7.0 mi NE 12.7 mph 23.0 mph 0.27 in   Overcast
11:15 PM 55.4 °F 51.8 °F 88% 29.73 in 6.0 mi NE 13.8 mph 26.5 mph 0.13 in   Overcast
11:35 PM 55.4 °F 50.0 °F 82% 29.71 in 10.0 mi NE 17.3 mph 26.5 mph 0.14 in   Overcast
11:55 PM 55.4 °F 50.0 °F 82% 29.70 in 4.0 mi ENE 12.7 mph 25.3 mph 0.19 in   Overcast